Weather History for Renton, WA

Change the Weather History Date:

Sunday, May 19, 2013

  Actual Average Record
Temperature  
Mean Temperature 58 °F -  
Max Temperature 64 °F 64 °F 75 °F (2008)
Min Temperature 53 °F 48 °F 33 °F (1997)
Degree Days  
Heating Degree Days 6    
Growing Degree Days 8 (Base 50)    
Moisture  
Dew Point 49 °F    
Average Humidity 74    
Maximum Humidity 86    
Minimum Humidity 54    
Precipitation  
Precipitation 0.00 in - - ()
Sea Level Pressure  
Sea Level Pressure 30.37 in    
Wind  
Wind Speed 2 mph (NNW)    
Max Wind Speed 7 mph    
Max Gust Speed -    
Visibility 10 miles    
Events      
Averages and records for this station are not official NWS values.
T = Trace of Precipitation, MM = Missing Value Source: NWS Daily Summary

Daily Weather History Graph

Daily Weather History Graph

Search for Another Location

Airport:

Trip Planner

Search our weather history database for the weather conditions in past years. The results will help you decide how hot, cold, wet, or windy it might be!

Date:

Astronomy

May. 19, 2013 Rise Set
Actual Time 5:26 AM PDT 8:44 PM PDT
Civil Twilight 4:49 AM PDT 9:22 PM PDT
Nautical Twilight 4:00 AM PDT 10:11 PM PDT
Astronomical Twilight 2:58 AM PDT 11:14 PM PDT
Moon 2:31 PM PDT (5/19) 2:18 AM PDT (5/19)
Length of Visible Light 16h 32m
Length of Day
15h 17m
Waxing Gibbous, 66% of the Moon is Illuminated
May 19
Waxing Gibbous
May 24
Full
May 31
Last Quarter
Jun 8
New
Jun 16
First Quarter

Hourly Weather History & Observations

Time (PDT) Temp. Dew Point Humidity Pressure Visibility Wind Dir Wind Speed Gust Speed Precip Events Conditions
12:53 AM 55.9 °F 51.1 °F 84% 30.30 in 10.0 mi Calm Calm - N/A   Overcast
1:53 AM 55.0 °F 51.1 °F 86% 30.31 in 10.0 mi Calm Calm - N/A   Overcast
2:53 AM 55.0 °F 51.1 °F 86% 30.32 in 10.0 mi Calm Calm - N/A   Overcast
3:53 AM 55.0 °F 48.9 °F 80% 30.35 in 10.0 mi Calm Calm - N/A   Overcast
4:53 AM 53.6 °F 48.2 °F 82% 30.34 in 10.0 mi NNW 3.5 mph - N/A   Overcast
5:01 AM 55.4 °F 48.2 °F 77% 30.34 in 10.0 mi NW 4.6 mph - N/A   Overcast
5:25 AM 53.6 °F 48.2 °F 82% 30.34 in 10.0 mi NNW 5.8 mph - N/A   Overcast
5:53 AM 54.0 °F 48.0 °F 80% 30.36 in 10.0 mi Calm Calm - N/A   Overcast
6:53 AM 54.0 °F 48.9 °F 83% 30.38 in 10.0 mi NNW 3.5 mph - N/A   Overcast
7:20 AM 55.4 °F 48.2 °F 77% 30.36 in 10.0 mi NNW 3.5 mph - N/A   Overcast
7:53 AM 55.0 °F 48.9 °F 80% 30.39 in 10.0 mi NNW 5.8 mph - N/A   Overcast
8:53 AM 55.9 °F 48.9 °F 77% 30.40 in 10.0 mi Calm Calm - N/A   Overcast
9:53 AM 55.9 °F 48.9 °F 77% 30.40 in 10.0 mi NNW 5.8 mph - N/A   Overcast
10:53 AM 57.0 °F 50.0 °F 77% 30.41 in 10.0 mi NNW 6.9 mph - N/A   Overcast
11:53 AM 59.0 °F 50.0 °F 72% 30.40 in 10.0 mi NW 6.9 mph - N/A   Overcast
12:53 PM 59.0 °F 48.2 °F 67% 30.40 in 10.0 mi NW 6.9 mph - N/A   Overcast
1:53 PM 60.1 °F 50.0 °F 69% 30.42 in 10.0 mi NW 4.6 mph - N/A   Overcast
2:53 PM 61.0 °F 48.9 °F 64% 30.42 in 10.0 mi NNW 3.5 mph - N/A   Overcast
3:53 PM 63.0 °F 48.9 °F 60% 30.41 in 10.0 mi NNW 3.5 mph - N/A   Scattered Clouds
4:53 PM 62.1 °F 48.9 °F 62% 30.41 in 10.0 mi NNW 6.9 mph - N/A   Mostly Cloudy
5:53 PM 63.0 °F 48.0 °F 58% 30.39 in 10.0 mi NW 5.8 mph - N/A   Overcast
6:53 PM 64.0 °F 46.9 °F 54% 30.38 in 10.0 mi NW 6.9 mph - N/A   Clear
7:53 PM 62.1 °F 48.0 °F 60% 30.38 in 10.0 mi NW 4.6 mph - N/A   Scattered Clouds
8:53 PM 59.0 °F 48.2 °F 67% 30.36 in 10.0 mi Calm Calm - N/A   Overcast
9:53 PM 57.9 °F 46.9 °F 67% 30.37 in 10.0 mi Calm Calm - N/A   Clear
10:53 PM 55.0 °F 48.0 °F 77% 30.37 in 10.0 mi Calm Calm - N/A   Partly Cloudy
11:53 PM 55.0 °F 48.9 °F 80% 30.37 in 10.0 mi Calm Calm - N/A   Mostly Cloudy